カタログに戻る

COSMOS 1275 DEB

運用中PO
NORAD 42176·DEBRIS·🇷🇺 Russia

打ち上げ Jun 4, 1981 から Plesetsk Cosmodrome

Loading…

次のパス (今後24時間)

TLE

経年Source: Space-Track

元期: Sep 3, 2026, 14:22 UTC

1 42176U 81053SQ  26246.59906427  .00000498  00000-0  49810-3 0  9995
2 42176  82.9022 356.9766 0105745 136.4301 283.4891 13.73460243639766

AllMySatでCOSMOS 1275 DEBをリアルタイム追跡

Download on the App Store